Weather History for Asheville, NC

Change the Weather History Date:

Monday, October 15, 2012

  Actual Average Record
Temperature  
Mean Temperature 62 °F 57 °F  
Max Temperature 71 °F 68 °F 86 °F (1897)
Min Temperature 52 °F 45 °F 27 °F (1907)
Degree Days  
Heating Degree Days 3 9  
Month to date heating degree days 104 101  
Since 1 July heating degree days 130 158  
Cooling Degree Days 0 0  
Month to date cooling degree days 4 7  
Year to date cooling degree days 1022 859  
Growing Degree Days 13 (Base 50)    
Moisture  
Dew Point 53 °F    
Average Humidity 67    
Maximum Humidity 97    
Minimum Humidity 37    
Precipitation  
Precipitation 0.83 in 0.09 in 3.60 in (1914)
Month to date precipitation 3.90 1.46  
Year to date precipitation 39.32 36.88  
Snow  
Snow 0.00 in 0.00 in 0.00 in ()
Month to date snowfall 0.0 0.0  
Since 1 July snowfall 0.0 0.0  
Since 1 September snowfall 0.0 0.0  
Snow Depth 0.00 in    
Sea Level Pressure  
Sea Level Pressure 29.91 in    
Wind  
Wind Speed 7 mph (NNW)    
Max Wind Speed 23 mph    
Max Gust Speed 29 mph    
Visibility 8 miles    
Events Rain    
T = Trace of Precipitation, MM = Missing Value Source: NWS Daily Summary

Daily Weather History Graph

Daily Weather History Graph

Search for Another Location

Airport:

Trip Planner

Search our weather history database for the weather conditions in past years. The results will help you decide how hot, cold, wet, or windy it might be!

Date:

Astronomy

Oct. 15, 2012 Rise Set
Actual Time 7:36 AM EDT 6:54 PM EDT
Civil Twilight 7:11 AM EDT 7:19 PM EDT
Nautical Twilight 6:41 AM EDT 7:49 PM EDT
Astronomical Twilight 6:12 AM EDT 8:18 PM EDT
Moon 7:43 AM EDT (10/15) 6:56 PM EDT (10/15)
Length of Visible Light 12h 08m
Length of Day
11h 17m
New Moon, 0% of the Moon is Illuminated
Oct 15
New Moon
Oct 21
First Quarter
Oct 29
Full
Nov 6
Last Quarter
Nov 13
New

Hourly Weather History & Observations

Time (EDT) Temp. Dew Point Humidity Pressure Visibility Wind Dir Wind Speed Gust Speed Precip Events Conditions
12:54 AM 62.1 °F 57.9 °F 86% 30.00 in 10.0 mi Calm Calm - N/A   Overcast
1:14 AM 62.6 °F 57.2 °F 82% 30.03 in 10.0 mi South 3.5 mph - N/A   Overcast
1:54 AM 62.1 °F 59.0 °F 90% 29.97 in 10.0 mi SE 3.5 mph - 0.00 in Rain Light Rain
2:54 AM 62.1 °F 59.0 °F 90% 29.95 in 10.0 mi Calm Calm - 0.00 in Rain Light Rain
3:04 AM 62.6 °F 59.0 °F 88% 29.99 in 10.0 mi Calm Calm - 0.00 in Rain Light Rain
3:54 AM 62.1 °F 60.1 °F 93% 29.91 in 5.0 mi Calm Calm - 0.06 in Rain Light Rain
4:18 AM 60.8 °F 60.8 °F 100% 29.96 in 8.0 mi Calm Calm - 0.00 in Rain Light Rain
4:54 AM 62.1 °F 60.1 °F 93% 29.88 in 6.0 mi SSE 4.6 mph - 0.02 in Rain Light Rain
5:30 AM 62.6 °F 60.8 °F 94% 29.95 in 1.8 mi WNW 5.8 mph - 0.05 in Rain Heavy Rain
5:41 AM 60.8 °F 59.0 °F 94% 29.96 in 1.8 mi NNW 9.2 mph - 0.19 in Rain Heavy Rain
5:51 AM 60.8 °F 59.0 °F 94% 29.94 in 1.0 mi Calm Calm - 0.42 in Rain Heavy Rain
5:54 AM 61.0 °F 59.0 °F 93% 29.89 in 1.2 mi South 8.1 mph - 0.51 in Rain Heavy Rain
5:56 AM 60.8 °F 57.2 °F 88% 29.94 in 1.5 mi SSW 6.9 mph - 0.03 in Rain Heavy Rain
6:02 AM 60.8 °F 57.2 °F 88% 29.95 in 3.0 mi SW 5.8 mph - 0.07 in Rain Heavy Rain
6:49 AM 60.8 °F 57.2 °F 88% 29.94 in 10.0 mi NNE 3.5 mph - 0.19 in Rain Light Rain
6:54 AM 60.1 °F 57.9 °F 93% 29.90 in 5.0 mi Calm Calm - 0.20 in Rain Rain
7:54 AM 59.0 °F 57.0 °F 93% 29.90 in 6.0 mi South 4.6 mph - 0.04 in Rain Light Rain
8:54 AM 60.1 °F 57.9 °F 93% 29.89 in 6.0 mi Calm Calm - 0.00 in   Overcast
9:01 AM 60.8 °F 57.2 °F 88% 29.94 in 10.0 mi Calm Calm - N/A   Mostly Cloudy
9:15 AM 60.8 °F 57.2 °F 88% 29.94 in 10.0 mi Calm Calm - N/A   Mostly Cloudy
9:23 AM 60.8 °F 57.2 °F 88% 29.95 in 10.0 mi Calm Calm - N/A   Mostly Cloudy
9:54 AM 60.1 °F 57.9 °F 93% 29.91 in 10.0 mi SSE 3.5 mph - N/A   Overcast
10:01 AM 60.8 °F 57.2 °F 88% 29.95 in 10.0 mi Calm Calm - N/A   Overcast
10:37 AM 62.6 °F 57.2 °F 82% 29.94 in 10.0 mi North 3.5 mph - N/A   Overcast
10:54 AM 62.1 °F 57.9 °F 86% 29.88 in 10.0 mi Calm Calm - N/A   Overcast
11:03 AM 62.6 °F 57.2 °F 82% 29.93 in 10.0 mi Calm Calm - N/A   Overcast
11:54 AM 64.9 °F 57.9 °F 78% 29.86 in 10.0 mi Calm Calm - N/A   Mostly Cloudy
12:00 PM 66.2 °F 59.0 °F 78% 29.91 in 10.0 mi Calm Calm - N/A   Scattered Clouds
12:54 PM 70.0 °F 48.0 °F 46% 29.84 in 10.0 mi WNW 10.4 mph 18.4 mph N/A   Scattered Clouds
1:15 PM 68.0 °F 51.8 °F 56% 29.89 in 10.0 mi North 12.7 mph 19.6 mph N/A   Scattered Clouds
1:54 PM 69.1 °F 46.0 °F 44% 29.82 in 10.0 mi North 12.7 mph 21.9 mph N/A   Scattered Clouds
2:54 PM 70.0 °F 42.1 °F 36% 29.80 in 10.0 mi North 15.0 mph 25.3 mph N/A   Clear
3:54 PM 68.0 °F 42.1 °F 39% 29.81 in 10.0 mi NNW 17.3 mph - N/A   Clear
4:54 PM 66.9 °F 39.0 °F 36% 29.83 in 10.0 mi North 18.4 mph 24.2 mph N/A   Clear
5:54 PM 64.0 °F 37.0 °F 37% 29.84 in 10.0 mi NNW 15.0 mph 24.2 mph N/A   Clear
6:54 PM 60.1 °F 39.0 °F 46% 29.86 in 10.0 mi NNW 10.4 mph 21.9 mph N/A   Clear
7:54 PM 57.9 °F 42.1 °F 56% 29.88 in 10.0 mi North 5.8 mph - N/A   Partly Cloudy
8:54 PM 55.0 °F 41.0 °F 59% 29.90 in 10.0 mi Calm Calm - N/A   Clear
9:54 PM 55.9 °F 41.0 °F 57% 29.92 in 10.0 mi North 9.2 mph - N/A   Partly Cloudy
10:54 PM 55.0 °F 39.9 °F 57% 29.91 in 10.0 mi North 10.4 mph 16.1 mph N/A   Clear
11:54 PM 53.1 °F 41.0 °F 64% 29.89 in 10.0 mi NNW 19.6 mph 27.6 mph N/A   Clear